Weather History for Kenai, AK

Change the Weather History Date:

Thursday, October 4, 2012

  Actual Average Record
Temperature  
Mean Temperature 50 °F -  
Max Temperature 57 °F 46 °F 60 °F (2001)
Min Temperature 44 °F 32 °F 19 °F (1970)
Degree Days  
Heating Degree Days 14    
Moisture  
Dew Point 46 °F    
Average Humidity 90    
Maximum Humidity 97    
Minimum Humidity 72    
Precipitation  
Precipitation 0.01 in - - ()
Sea Level Pressure  
Sea Level Pressure 30.02 in    
Wind  
Wind Speed 9 mph (NW)    
Max Wind Speed 14 mph    
Max Gust Speed -    
Visibility 10 miles    
Events Rain    
Averages and records for this station are not official NWS values.
T = Trace of Precipitation, MM = Missing Value Source: NWS Daily Summary

Daily Weather History Graph

Daily Weather History Graph

Search for Another Location

Airport:

Trip Planner

Search our weather history database for the weather conditions in past years. The results will help you decide how hot, cold, wet, or windy it might be!

Date:

Astronomy

Oct. 04, 2012 Rise Set
Actual Time 8:20 AM AKDT 7:25 PM AKDT
Civil Twilight 7:37 AM AKDT 8:07 PM AKDT
Nautical Twilight 6:48 AM AKDT 8:56 PM AKDT
Astronomical Twilight 5:56 AM AKDT 9:47 PM AKDT
Moon 8:49 PM AKDT (10/4) 2:05 PM AKDT (10/4)
Length of Visible Light 12h 29m
Length of Day
11h 05m
Waning Gibbous, 81% of the Moon is Illuminated
Oct 4
Waning Gibbous
Oct 7
Last Quarter
Oct 15
New
Oct 21
First Quarter
Oct 29
Full

Hourly Weather History & Observations

Time (AKDT) Temp. Windchill Dew Point Humidity Pressure Visibility Wind Dir Wind Speed Gust Speed Precip Events Conditions
12:53 AM 44.1 °F 37.4 °F 43.0 °F 96% 30.00 in 10.0 mi North 13.8 mph - N/A   Overcast
1:53 AM 45.0 °F 39.7 °F 43.0 °F 93% 29.99 in 10.0 mi North 10.4 mph - 0.00 in Rain Light Rain
2:53 AM 45.0 °F 39.3 °F 44.1 °F 97% 29.99 in 10.0 mi North 11.5 mph - 0.00 in   Overcast
3:53 AM 45.0 °F 40.1 °F 43.0 °F 93% 29.97 in 10.0 mi NNE 9.2 mph - N/A   Overcast
4:53 AM 45.0 °F 40.6 °F 43.0 °F 93% 29.97 in 10.0 mi North 8.1 mph - N/A   Mostly Cloudy
5:53 AM 45.0 °F 40.1 °F 43.0 °F 93% 29.96 in 10.0 mi North 9.2 mph - N/A   Mostly Cloudy
6:53 AM 46.0 °F 43.9 °F 44.1 °F 93% 29.95 in 10.0 mi Variable 4.6 mph - N/A   Overcast
7:53 AM 46.9 °F - 44.1 °F 90% 29.97 in 10.0 mi North 5.8 mph - N/A   Overcast
8:53 AM 46.0 °F 41.9 °F 44.1 °F 93% 29.96 in 10.0 mi ENE 8.1 mph - N/A   Overcast
9:53 AM 46.9 °F - 45.0 °F 93% 29.96 in 10.0 mi North 5.8 mph - N/A   Overcast
10:53 AM 48.0 °F - 46.0 °F 93% 29.97 in 10.0 mi NNW 6.9 mph - 0.00 in   Overcast
11:53 AM 48.0 °F - 46.0 °F 93% 29.97 in 10.0 mi North 8.1 mph - N/A   Overcast
12:53 PM 50.0 °F - 46.9 °F 89% 29.97 in 10.0 mi NNE 4.6 mph - 0.00 in   Overcast
1:53 PM 54.0 °F - 48.9 °F 83% 29.99 in 10.0 mi North 5.8 mph - N/A   Overcast
2:53 PM 55.9 °F - 48.9 °F 77% 29.99 in 10.0 mi Calm Calm - N/A   Scattered Clouds
3:53 PM 54.0 °F - 48.9 °F 83% 30.01 in 10.0 mi West 4.6 mph - N/A   Overcast
4:53 PM 57.0 °F - 48.0 °F 72% 30.02 in 10.0 mi Calm Calm - N/A   Scattered Clouds
5:53 PM 55.0 °F - 46.0 °F 72% 30.04 in 10.0 mi WSW 8.1 mph - N/A   Clear
6:53 PM 50.0 °F - 46.0 °F 86% 30.06 in 10.0 mi SW 9.2 mph - N/A   Scattered Clouds
7:53 PM 48.9 °F - 46.9 °F 93% 30.08 in 10.0 mi WSW 9.2 mph - N/A   Scattered Clouds
8:53 PM 48.0 °F - 46.0 °F 93% 30.10 in 10.0 mi SW 9.2 mph - N/A   Mostly Cloudy
9:53 PM 48.0 °F - 46.0 °F 93% 30.12 in 10.0 mi SW 8.1 mph - 0.01 in   Overcast
10:53 PM 48.0 °F - 46.0 °F 93% 30.14 in 10.0 mi SW 10.4 mph - N/A   Scattered Clouds
11:50 PM 48.2 °F - 46.4 °F 93% 30.17 in 10.0 mi SW 8.1 mph - N/A   Overcast
11:53 PM 48.0 °F - 46.0 °F 93% 30.17 in 10.0 mi WSW 6.9 mph - N/A   Overcast